Back to catalog

SL-8 R/B

AlivePO
NORAD 10355·ROCKET BODY·🇷🇺 Russia

Launched Sep 13, 1977 from Plesetsk Cosmodrome

Loading…

Next Passes (next 24 hours)

TLE

FreshSource: Space-Track

Epoch: Sep 14, 2026, 05:31 UTC

1 10355U 77087B   26257.23009424 -.00000046  00000-0 -63044-4 0  9992
2 10355  82.9663  73.4271 0032890 335.4340 197.3602 13.76092626459635

Track SL-8 R/B in real time with AllMySat

Download on the App Store